Home   Weather   Tijuana   Past weeks

Flag for Mexico Past Weather in Tijuana, Baja California, Mexico — Yesterday and Last 2 Weeks

Now
58 °F

Fog.


Feels Like: 58 °F
Forecast: 57 / 66 °F
Wind: No wind

Location: Brown Field Municipal Airport

Current Time: Dec 11, 2016 at 6:03:32 am

Latest Report: Dec 11, 2016 at 4:53 am


Visibility: 6 mi

Pressure: 30.10 "Hg

Humidity: 90%

Dew Point: 55 °F

Location of TijuanaLocation

Past Weather in Tijuana — Graph

°F

Tijuana Temperature Yesterday

Maximum temperature yesterday: 66 °F (at 12:53 pm)
Minimum temperature yesterday: 52 °F (at 3:53 am)
Average temperature yesterday: 58 °F

High & Low Weather Summary for the Past Weeks

 TemperatureHumidityPressure
High73 °F (Dec 4, 1:53 pm)100% (Nov 26, 4:53 pm)30.27 "Hg (Nov 26, 4:53 pm)
Low38 °F (Dec 3, 5:53 am)16% (Dec 3, 10:53 am)29.85 "Hg (Nov 28, 5:53 pm)
Average56 °F71%30.04 "Hg
* Reported Nov 26 4:53 am — Dec 11 4:53 am, Tijuana, Weather by CustomWeather, © 2016

Note: Actual official high and low records may vary slightly from our data, if they occured in-between our weather recording intervals... More about our weather records

Advertising

Tijuana Weather History for the Previous 24 Hours

Scroll right to see more
 ConditionsComfort  
Time TempWeatherWind HumidityBarometerVisibility
4:53 am
Sun, Dec 11
58 °FFog.No wind90%30.10 "Hg6 mi
3:53 am57 °FOvercast.5 mph93%30.10 "Hg7 mi
2:53 am58 °FOvercast.No wind90%30.11 "Hg10 mi
1:53 am58 °FPassing clouds.No wind90%30.10 "Hg10 mi
12:53 am58 °FOvercast.No wind90%30.11 "Hg9 mi
11:53 pm
Sat, Dec 10
59 °FOvercast.No wind90%30.13 "Hg10 mi
10:53 pm59 °FLow clouds.3 mph90%30.15 "Hg9 mi
9:53 pm59 °FOvercast.No wind90%30.14 "Hg10 mi
8:53 pm59 °FLow clouds.No wind90%30.14 "Hg9 mi
7:53 pm58 °FLow clouds.No wind93%30.14 "Hg10 mi
6:53 pm58 °FClear.5 mph90%30.11 "Hg10 mi
5:53 pm58 °FClear.3 mph90%30.09 "Hg10 mi
4:53 pm59 °FClear.6 mph87%30.09 "Hg10 mi
3:53 pm62 °FSunny.8 mph78%30.09 "Hg10 mi
2:53 pm64 °FSunny.9 mph75%30.10 "Hg10 mi
1:53 pm65 °FSunny.8 mph73%30.09 "Hg10 mi
12:53 pm66 °FSunny.5 mph68%30.11 "Hg10 mi
11:53 am64 °FSunny.3 mph73%30.13 "Hg10 mi
10:53 am61 °FPartly sunny.3 mph81%30.18 "Hg10 mi
9:53 am58 °FFog.3 mph87%30.20 "Hg5 mi
8:53 am57 °FFog.3 mph87%30.19 "Hg5 mi
7:53 am54 °FFog.6 mph93%30.17 "Hg4 mi
6:53 am54 °FFog.3 mph93%30.16 "Hg4 mi
Weather by CustomWeather, © 2016

See weather overviewHow to use our weather pages